Location: ??
(34.7707°N, 135.6540°E)
Time: 04:28:56
(UTC+00:00)

Cosmos 1689 Rocket - Pass Details

Date: 09 April 2020
Orbit: 368 x 383 km, 97.5° (Epoch: 27 May)

Event Time Altitude Azimuth Distance (km) Brightness Sun altitude
Rises 19:45:21 0° 188° (S) 2,254 5.7 -10.2°
Reaches altitude 10° 19:47:28 10° 201° (SSW) 1,404 4.5 -9.8°
Maximum altitude 19:50:05 27° 262° (W) 775 3.0 -9.3°
Drops below altitude 10° 19:52:43 10° 323° (NW) 1,409 4.7 -8.7°
Sets 19:54:51 0° 336° (NNW) 2,265 5.9 -8.3°
